Hourly Data Report for April 05, 2016

MIRAMICHI RCS
NEW BRUNSWICK

47°00'34.000" N
65°27'54.000" W
33.00 m
8100989
71744
ACQ

Download Data

Hourly Data (April 2016)
Hourly Data Report for April 5, 2016
TIME
LST
Temp Definition
°C
Dew Point Definition
°C
Rel Hum Definition
%
Precip. Amount Definition
mm

Wind Dir Definition
10's deg

Wind Spd Definition
km/h
Visibility Definition
km
Stn Press Definition
kPa
Hmdx Definition


Wind Chill Definition


Weather Definition


00:00 -9.2 -19.3 44 0.0 31 10   101.60   -14 LegendNANA
01:00 -10.2 -18.8 49 0.0 31 6   101.63   -14 LegendNANA
02:00 -11.1 -18.7 53 0.0 30 5   101.65   -14 LegendNANA
03:00 -11.7 -18.5 57 0.0 30 4   101.65   -14 LegendNANA
04:00 -12.3 -18.6 59 0.0 27 2   101.69   -14 LegendNANA
05:00 -12.6 -18.3 62 0.0 29 6   101.76   -17 LegendNANA
06:00 -13.0 -18.4 64 0.0 29 6   101.83   -17 LegendNANA
07:00 -12.2 -18.5 60 0.0 30 9   101.91   -17 LegendNANA
08:00 -10.8 -19.7 48 0.0 32 10   101.93   -16 LegendNANA
09:00 -10.2 -20.5 42 0.0 32 13   101.94   -16 LegendNANA
10:00 -8.8 -21.0 37 0.0 32 13   101.91   -15 LegendNANA
11:00 -7.5 -21.1 33 0.0 30 15   101.88   -14 LegendNANA
12:00 -6.7 -20.4 33 0.0 30 16   101.80   -13 LegendNANA
13:00 -5.3 -19.9 31 0.0 30 13   101.72   -10 LegendNANA
14:00
15:00 -3.7 -18.5 31 0.0 28 19   101.59   -10 LegendNANA
16:00 -3.9 -19.9 28 0.0 30 13   101.56   -9 LegendNANA
17:00 -3.6 -18.7 30 0.0 29 15   101.57   -9 LegendNANA
18:00 -4.1 -19.8 28 0.0 31 15   101.60   -9 LegendNANA
19:00 -5.3 -19.6 32 0.0 30 18   101.68   -12 LegendNANA
20:00 -6.4 -19.1 36 0.0 31 8   101.76   -10 LegendNANA
21:00 -7.3 -19.0 39 0.0 30 11   101.81   -12 LegendNANA
22:00 -8.1 -19.0 41 0.0 30 10   101.82   -13 LegendNANA
23:00 -9.1 -18.4 47 0.0 29 9   101.82   -14 LegendNANA

Notes on Data Quality.

Legend

  • E = Estimated
  • M = Missing
  • NA = Not Available*
  • [empty] = Indicates an unobserved value
Date modified: